Simultaneous Nadir Overpasses (SNOs) Predictions

Prediction of SNOs between LANDSAT-8 and METOP-B Satellite Orbit:

Table of predicted SNOs for the next 14.0 days since TLE Epoch: 10/3/2014
Index Date (LANDSAT-8) Time (LANDSAT-8) Lat,Lon (LANDSAT-8) SZA (LANDSAT-8 ) Date (METOP-B) Time (METOP-B) Lat,Lon (METOP-B) SZA (METOP-B ) Distance(km) Time Diff (sec)
1 10/06/2014 02:41:06 81.18,-179.50 88.62 10/06/2014 02:40:00 81.18,-179.45 88.59 0.92 66
2 10/06/2014 03:30:32 -81.20, -11.51 91.32 10/06/2014 03:30:39 -81.20, -11.60 91.33 1.66 7
3 10/08/2014 22:15:20 81.19,-112.88 89.73 10/08/2014 22:14:18 81.18,-112.93 89.70 1.06 62
4 10/08/2014 23:04:46 -81.21, 55.13 90.20 10/08/2014 23:04:56 -81.21, 55.29 90.18 2.75 10
5 10/11/2014 17:49:35 81.19, -46.50 90.81 10/11/2014 17:48:37 81.18, -46.49 90.78 0.16 58
6
